Regional Weather Roundup
Issued by NWS

Home | Current Version | Previous Version | Text Only | Print | Product List | Glossary On
Versions: 1 2 3 4 5 6 7 8 9 10 11 12 13 14 15 16 17 18 19 20 21 22 23 24 25 26 27 28
000
ASUS45 KBOI 171510
RWRID

IDAHO REGIONAL WEATHER ROUNDUP
NATIONAL WEATHER SERVICE BOISE ID
900 AM MDT TUE OCT 17 2017

NOTE: "FAIR" INDICATES FEW OR NO CLOUDS BELOW 12000 FEET
WITH NO SIGNIFICANT WEATHER AND/OR OBSTRUCTIONS TO VISIBILITY

IDZ012-014-171600-
SOUTHWEST IDAHO


CITY           SKY/WX    TMP DP  RH WIND       PRES   REMARKS
BOISE          MOCLDY    43  29  57 E6        30.17F
CALDWELL       MOCLDY    34  27  75 NE3       30.19F
MOUNTAIN HOME  MOCLDY    38  26  63 SE8       30.19F WCI  32
$$

IDZ016-017-171600-
SOUTHCENTRAL IDAHO


CITY           SKY/WX    TMP DP  RH WIND       PRES   REMARKS
BURLEY         MOSUNNY   33  27  78 N3        30.22S
JEROME         MOSUNNY   37  26  64 NE15      30.22R WCI  28
TWIN FALLS     MOSUNNY   41  27  57 NW3       30.21S
$$

IDZ019>023-171600-
SOUTHEAST IDAHO


CITY           SKY/WX    TMP DP  RH WIND       PRES   REMARKS
IDAHO FALLS    CLOUDY    29  26  89 N5        30.29F WCI  24
POCATELLO      CLOUDY    32  28  85 NE3       30.27F
REXBURG        CLOUDY    29  23  78 NE6       30.29F WCI  23
$$

IDZ006-010-011-018-031-032-171600-
CENTRAL IDAHO MOUNTAINS


CITY           SKY/WX    TMP DP  RH WIND       PRES   REMARKS
MCCALL         CLEAR     29  25  85 CALM      30.19F
HAILEY         SUNNY     36  23  60 NW9       30.29S WCI  29
STANLEY          N/A     24  20  84 CALM      30.31S
SALMON         CLOUDY    31  27  85 CALM      30.25S
CHALLIS        SUNNY     29  23  78 CALM      30.26S
$$

IDZ002-004-006-007-026-171600-
NORTHERN IDAHO


CITY           SKY/WX    TMP DP  RH WIND       PRES   REMARKS
LEWISTON       PTCLDY    49  35  58 N3        30.00S
LOWELL           N/A     36  35  96 N5        30.14F WCI  32
COEUR D`ALENE  CLEAR     44  36  73 S7        29.94F
MULLAN PASS    CLEAR     41  23  48 VRB3      30.02F
$$




USA.gov is the U.S. government's official web portal to all federal, state and local government web resources and services.